Regional Weather Roundup
Issued by NWS

Home | Current Version | Previous Version | Graphics & Text | Print | Product List | Glossary On
Versions: 1 2 3 4 5 6 7 8 9 10 11 12 13 14 15 16 17 18 19 20 21 22 23 24 25 26 27 28 29 30 31 32 33 34 35 36 37 38 39 40 41 42 43 44 45 46 47 48 49 50
000
ASUS43 KMKX 211221
RWRWI

WISCONSIN REGIONAL WEATHER ROUNDUP
NATIONAL WEATHER SERVICE MILWAUKEE/SULLIVAN WI
600 AM CST TUE FEB 21 2017

NOTE: "FAIR" INDICATES FEW OR NO CLOUDS BELOW 12,000 FEET WITH NO
SIGNIFICANT WEATHER AND/OR OBSTRUCTIONS TO VISIBILITY.

WIZ001-002-006>008-014>016-023>028-211300-
NORTHWEST WISCONSIN

CITY           SKY/WX    TMP DP  RH WIND       PRES   REMARKS
SUPERIOR ARPT  CLOUDY    35  33  93 SW8G16    29.84R WCI  28
6HR MIN TEMP:  35; 6HR MAX TEMP:  43;

ASHLAND        PTCLDY    36  34  92 SW9       29.82R WCI  29
6HR MIN TEMP:  36; 6HR MAX TEMP:  50;

HAYWARD        CLOUDY    37  33  85 SW9       29.85S WCI  30
6HR MIN TEMP:  37; 6HR MAX TEMP:  50;

SIREN          CLOUDY    35  34  96 SW3       29.88R
6HR MIN TEMP:  35; 6HR MAX TEMP:  42;

CUMBERLAND     CLOUDY    34  32  93 W6        29.88R WCI  29
RICE LAKE      CLOUDY    36  35  96 SW3       29.90R FOG
6HR MIN TEMP:  36; 6HR MAX TEMP:  45;

CHETEK         CLOUDY    36  35  96 SW5       29.89R WCI  32
6HR MIN TEMP:  36; 6HR MAX TEMP:  47;

LADYSMITH      CLOUDY    37  36  95 SW6       29.89R WCI  32
6HR MIN TEMP:  37; 6HR MAX TEMP:  51;

EAU CLAIRE     CLOUDY    38  36  92 W8        29.89S WCI  32
6HR MIN TEMP:  38; 6HR MAX TEMP:  48;

MENOMONIE      CLOUDY    37  36  94 SW6       29.91S WCI  32
6HR MIN TEMP:  37; 6HR MAX TEMP:  45;

NEW RICHMOND   FOG       35  35  99 SW7       29.90R VSB 1   WCI  29
6HR MIN TEMP:  35; 6HR MAX TEMP:  41;

OSCEOLA        NOT AVBL
$$

WIZ003>005-009-010-017-018-211300-
NORTH CENTRAL WISCONSIN

CITY           SKY/WX    TMP DP  RH WIND       PRES   REMARKS
MANITOWISH WTR CLOUDY    36  36 100 W9        29.81R WCI  29
6HR MIN TEMP:  36; 6HR MAX TEMP:  47; 6HR PCP:  0.03;

ARBOR VITAE    MOCLDY    39  37  93 W8G16     29.82R WCI  34
6HR MIN TEMP:  39; 6HR MAX TEMP:  52; 6HR PCP:  0.01;

WOODRUFF       MOCLDY    39  37  93 W8G16     29.82R WCI  34
6HR MIN TEMP:  39; 6HR MAX TEMP:  52; 6HR PCP:  0.01;

RHINELANDER    MOCLDY    40  39  97 W13       29.83R WCI  32
6HR MIN TEMP:  39; 6HR MAX TEMP:  50; 6HR PCP:  0.05;

EAGLE RIVER    MOCLDY    39  39 100 W10G16    29.80R WCI  33
6HR MIN TEMP:  39; 6HR MAX TEMP:  48;

LAND O LAKES   PTCLDY    39  38  97 W7        29.81R WCI  34
6HR MIN TEMP:  40; 6HR MAX TEMP:  49; 6HR PCP:  0.01;

PHILLIPS       MOCLDY    36  36 100 W7        29.84S WCI  30
6HR MIN TEMP:  36; 6HR MAX TEMP:  50;

TOMAHAWK       CLOUDY    39  37  93 W7        29.85R WCI  34
6HR MIN TEMP:  38; 6HR MAX TEMP:  49;

MEDFORD        CLOUDY    38  36  92 W6        29.87R WCI  33
6HR MIN TEMP:  38; 6HR MAX TEMP:  48; 6HR PCP:  0.01;

MERRILL        NOT AVBL
$$

WIZ029-030-035-036-043>047-211300-
CENTRAL WISCONSIN

CITY           SKY/WX    TMP DP  RH WIND       PRES   REMARKS
WAUSAU         CLOUDY    41  39  93 W12       29.85R
6HR MIN TEMP:  41; 6HR MAX TEMP:  51; 6HR PCP: TRACE;

MOSINEE        CLOUDY    41  41 100 W14       29.87R
MARSHFIELD     CLOUDY    40  37  89 W9        29.87R WCI  34
6HR MIN TEMP:  40; 6HR MAX TEMP:  52; 6HR PCP: TRACE;

STEVENS POINT  CLOUDY    41  39  94 W8        29.88R
6HR MIN TEMP:  41; 6HR MAX TEMP:  51;

WAUPACA        CLEAR     46  42  86 W10       29.87R
6HR MIN TEMP:  46; 6HR MAX TEMP:  55; 6HR PCP:  0.01;

WAUTOMA        CLOUDY    46  43  87 W15       29.89R
6HR MIN TEMP:  45; 6HR MAX TEMP:  54;

WISC RAPIDS    CLOUDY    44  41  89 W9        29.89R
6HR MIN TEMP:  44; 6HR MAX TEMP:  54; 6HR PCP: TRACE;

CAMP DOUGLAS   CLOUDY    43  41  93 W6        29.90R
6HR MIN TEMP:  43; 6HR MAX TEMP:  57;

$$

WIZ011>013-019>022-031-037>040-048>050-211300-
NORTHEAST WISCONSIN

CITY           SKY/WX    TMP DP  RH WIND       PRES   REMARKS
ANTIGO         CLOUDY    40  40 100 W10       29.83R WCI  33
6HR MIN TEMP:  40; 6HR MAX TEMP:  47;

SHAWANO        CLEAR     47  44  87 W7G16     29.84R
6HR MIN TEMP:  48; 6HR MAX TEMP:  54;

OCONTO         CLEAR     47  44  92 W10       29.81R
6HR MIN TEMP:  45; 6HR MAX TEMP:  53;

STURGEON BAY   PTCLDY    50  48  93 MISG      29.80R
6HR MIN TEMP:  42; 6HR MAX TEMP:  52;

GREEN BAY      CLOUDY    50  47  89 W12       29.82S
6HR MIN TEMP:  48; 6HR MAX TEMP:  54; 6HR PCP:  0.02;

MANITOWOC      CLOUDY    52  47  83 MISG      29.84R
6HR MIN TEMP:  42; 6HR MAX TEMP:  52; 6HR PCP:  0.03;

APPLETON       CLOUDY    46  45  93 W15G23    29.83R
CLINTONVILLE   CLEAR     43  41  93 W10       29.85R
OSHKOSH        CLOUDY    49  44  83 W7        29.84F
6HR MIN TEMP:  49; 6HR MAX TEMP:  54; 6HR PCP:  0.01;

$$

WIZ032>034-041-042-053>061-211300-
SOUTHWEST WISCONSIN

CITY           SKY/WX    TMP DP  RH WIND       PRES   REMARKS
LA CROSSE      CLOUDY    39  36  89 W5        29.93R
6HR MIN TEMP:  38; 6HR MAX TEMP:  53;

SPARTA         CLOUDY    41  40  97 CALM      29.93R
6HR MIN TEMP:  41; 6HR MAX TEMP:  56; 6HR PCP:  0.01;

VIROQUA        CLEAR     37  37 100 W6        29.92R WCI  32
6HR MIN TEMP:  37; 6HR MAX TEMP:  55;

BOSCOBEL       FOG       36  35  96 SW3       29.93S VSB 1/4
6HR MIN TEMP:  40; 6HR MAX TEMP:  57; 6HR PCP:  0.01;

PRAIRIE DU CHI FOG       36  35  96 CALM      29.93F VSB 1/4
6HR MIN TEMP:  34; 6HR MAX TEMP:  55;

PLATTEVILLE    PTCLDY    40  40 100 W6        29.92F
6HR MIN TEMP:  40; 6HR MAX TEMP:  54;

$$

WIZ056-057-062-063-064-067-068-211300-
SOUTH CENTRAL WISCONSIN

CITY           SKY/WX    TMP DP  RH WIND       PRES   REMARKS
REEDSBURG      CLOUDY    41  41 100 W3        29.91R FOG
6HR MIN TEMP:  41; 6HR MAX TEMP:  56;

BARABOO/DELLS  CLEAR     43  41  94 CALM      29.89S
6HR MIN TEMP:  43; 6HR MAX TEMP:  55;

LONE ROCK      MOCLDY    43  41  93 W8        29.92S
6HR MIN TEMP:  42; 6HR MAX TEMP:  58;

MINERAL POINT  CLOUDY    41  41 100 W8        29.92R
MADISON        CLOUDY    47  44  90 CALM      29.89R
6HR MIN TEMP:  47; 6HR MAX TEMP:  55; 6HR PCP:  0.02;

MIDDLETON        N/A     46  46 100 W9        29.90S
6HR MIN TEMP:  46; 6HR MAX TEMP:  58; 6HR PCP:  0.01;

WATERTOWN      MOCLDY    51  50  97 W10       29.88R
6HR MIN TEMP:  51; 6HR MAX TEMP:  54; 6HR PCP:  0.05;

MONROE         CLOUDY    45  43  93 W9        29.89F
JANESVILLE     MOCLDY    52  52 100 W6        29.90R
$$

WIZ051-052-058>065-066-070>072-211300-
SOUTHEAST WISCONSIN

CITY           SKY/WX    TMP DP  RH WIND       PRES   REMARKS
MILWAUKEE      CLOUDY    55  52  89 W9        29.88S
6HR MIN TEMP:  54; 6HR MAX TEMP:  58; 6HR PCP:  0.07;

WAUKESHA       CLOUDY    54  54 100 W13       29.88S
MILWAUKEE/TIMM CLOUDY    54  52  94 W9        29.88R
RACINE         CLOUDY    54  52  93 SW8       29.90R
6HR MIN TEMP:  46; 6HR MAX TEMP:  54; 6HR PCP:  0.05;

KENOSHA        CLOUDY    54  52  93 W10       29.89R FOG
6HR MIN TEMP:  53; 6HR MAX TEMP:  59; 6HR PCP:  0.03;

FOND DU LAC    CLOUDY    49  43  80 W5        29.86S
6HR MIN TEMP:  49; 6HR MAX TEMP:  55; 6HR PCP:  0.05;

SHEBOYGAN      CLOUDY    51  46  83 NW16G31   29.86R
6HR MIN TEMP:  44; 6HR MAX TEMP:  54; 6HR PCP:  0.02;

WEST BEND      CLOUDY    54  52  94 W9        29.86R
JUNEAU         MOCLDY    47  45  91 CALM      29.89S
6HR MIN TEMP:  47; 6HR MAX TEMP:  53; 6HR PCP:  0.04;

$$

LSZ147-162-211300-
LAKE SUPERIOR

STATION/POSITION TIME  TEMP    WIND        PRES    WAVE
                       AIR SEA DIR/SP/G            HT/PER
                 (UTC) (F)     (DEG/KT/KT) (MB)    (FT/S)
DEVILS ISLAND    1200   35     230/ 21/ 23 1009.2R
PORT WING        1140   37     220/  9/ 12 1010.2R
SAXON HARBOR     1140   39     200/  9/ 13 1009.1R
$$

LMZ867-665-643>646-211300-
LAKE MICHIGAN

STATION/POSITION TIME  TEMP    WIND        PRES    WAVE
                       AIR SEA DIR/SP/G            HT/PER
                 (UTC) (F)     (DEG/KT/KT) (MB)    (FT/S)
CHAMBERS ISLAND  1140   49     200/  7/ 13 1008.1R
NORTHPORT PIER   1140   52     250/  5/ 13 1008.5R
SISTER BAY       1005   45     180/ 17/ 20   N/A
KEWAUNEE LAKESHO 1154   42     21



USA.gov is the U.S. government's official web portal to all federal, state and local government web resources and services.